This demonstration page uses our WeatherBlox Daily Observations layout. Learn more.

Left ArrowRight Arrow

38.20091, -84.87328

Hourly Observations for January 24, 2015

Temp ( °F °C ) Dew Point ( °F °C ) Humidity (%) Winds ( mph kmh ) Pressure ( in mb ) Visibility ( mi km ) Precip ( " mm )
12:28 am 00:28 Cloudy with Light Snow 31 -0.6 30 -1.1 96 96 Calm 29.88 1012 2 2 0.00 0.03
12:39 am 00:39 Cloudy with Light Snow 31 -0.6 30 -1.1 96 96 WNW 3 6 29.88 1012 2 3 0.00 0.03
12:46 am 00:46 Cloudy with Mist and Fog 31 -0.6 30 -1.1 96 96 Calm 29.85 1011 2 3 0.00 0.03
12:53 am 00:53 Cloudy with Mist and Fog 31 -0.6 30 -1.1 96 96 WNW 3 6 29.85 1011 3 4 0.00 0.03
1:00 am 01:00 Cloudy with Mist and Fog 31 -0.6 30 -1.1 96 96 Calm 29.85 1011 3 4 0.00 0.00
1:11 am 01:11 Cloudy with Mist and Fog 31 -0.6 30 -1.1 96 96 Calm 29.85 1011 3 5 0.00 0.00
1:21 am 01:21 Cloudy with Mist and Fog 31 -0.6 30 -1.1 96 96 Calm 29.85 1011 3 5 0.00 0.00
1:35 am 01:35 Cloudy with Mist and Fog 31 -0.6 30 -1.1 96 96 Calm 29.85 1011 3 5 0.00 0.00
1:53 am 01:53 Cloudy with Mist and Fog 31 -0.6 30 -1.1 96 96 W 3 6 29.83 1010 3 5 0.00 0.00
2:20 am 02:20 Cloudy with Mist and Fog 31 -0.6 29 -1.7 92 92 WNW 6 9 29.85 1011 4 6 0.00 0.00
2:53 am 02:53 Cloudy with Mist and Fog 31 -0.6 29 -1.7 92 92 WNW 5 7 29.84 1010 4 6 0.00 0.00
3:00 am 03:00 Cloudy with Mist and Fog 31 -0.6 29 -1.7 92 92 WNW 6 9 29.85 1011 4 6 0.00 0.00
3:51 am 03:51 Partly Cloudy with Mist and Fog 30 -1 27 -3 86 86 WNW 7 11 29.83 1010 5 8 0.00 0.00
3:53 am 03:53 Mostly Clear with Mist and Fog 30 -1.1 27 -2.8 88 88 WNW 6 9 29.83 1010 5 8 0.00 0.00
4:31 am 04:31 Mostly Clear with Mist and Fog 29 -1.7 26 -3.3 89 89 NW 7 11 29.85 1011 5 8 0.00 0.00
4:53 am 04:53 Mostly Cloudy with Mist and Fog 27 -2.8 24 -4.4 89 89 WNW 7 11 29.83 1010 6 10 0.00 0.00
5:53 am 05:53 Cloudy 28 -2.2 24 -4.4 85 85 WNW 5 7 29.83 1010 8 13 0.00 0.00
6:18 am 06:18 Cloudy 27 -2.8 24 -4.4 89 89 WNW 7 11 29.88 1012 8 13 0.00 0.00
6:53 am 06:53 Cloudy 27 -2.8 23 -5 85 85 WNW 8 13 29.84 1011 10 16 0.00 0.00
7:27 am 07:27 Partly Cloudy 26 -3.3 22 -5.6 84 84 W 3 6 29.88 1012 10 16 0.00 0.00
7:53 am 07:53 Sunny 21 -6.1 19 -7.2 92 92 WSW 3 6 29.85 1011 7 11 0.00 0.00
8:53 am 08:53 Partly Cloudy with Mist and Fog 25 -3.9 22 -5.6 88 88 SW 6 9 29.85 1011 6 10 0.00 0.00
9:53 am 09:53 Cloudy with Mist and Fog 28 -2.2 24 -4.4 85 85 SW 9 15 29.85 1011 6 10 0.00 0.00
10:53 am 10:53 Sunny 29 -1.7 26 -3.3 89 89 SW 12 19 29.85 1011 7 11 0.00 0.00
11:01 am 11:01 Mostly Sunny 30 -1.1 25 -3.9 82 82 SW 12 19 29.85 1011 8 13 0.00 0.00
11:53 am 11:53 Mostly Sunny 31 -0.6 26 -3.3 82 82 SW 13 20 29.83 1010 9 14 0.00 0.00
12:53 pm 12:53 Sunny 33 0.6 27 -2.8 78 78 SW 15 24 29.79 1009 9 14 0.00 0.00
1:53 pm 13:53 Mostly Sunny 35 1.7 28 -2.2 76 76 SW 15 24 29.76 1008 9 14 0.00 0.00
2:37 pm 14:37 Cloudy 35 1.7 28 -2.2 76 76 SW 12 19 29.77 1008 8 13 0.00 0.00
2:53 pm 14:53 Cloudy 35 1.7 28 -2.2 76 76 WSW 12 19 29.76 1008 8 13 0.00 0.00
3:39 pm 15:39 Cloudy 35 1.7 29 -1.7 78 78 WSW 12 19 29.77 1008 7 11 0.00 0.00
3:53 pm 15:53 Cloudy 35 1.7 29 -1.7 78 78 SW 12 19 29.77 1008 7 11 0.00 0.00
4:53 pm 16:53 Cloudy 36 2.2 30 -1.1 79 79 WSW 8 13 29.78 1009 7 11 0.00 0.00
5:53 pm 17:53 Sunny 35 1.7 30 -1.1 82 82 SSW 6 9 29.80 1009 7 11 0.00 0.00
6:53 pm 18:53 Clear 34 1.1 29 -1.7 82 82 SW 8 13 29.83 1010 8 13 0.00 0.00
7:53 pm 19:53 Clear 33 0.6 29 -1.7 85 85 SW 9 15 29.84 1011 8 13 0.00 0.00
8:53 pm 20:53 Clear 33 0.6 29 -1.7 85 85 SW 8 13 29.85 1011 8 13 0.00 0.00
9:53 pm 21:53 Clear 33 0.6 29 -1.7 85 85 SW 7 11 29.85 1011 8 13 0.00 0.00
10:53 pm 22:53 Clear 32 0 28 -2.2 85 85 SSW 7 11 29.83 1010 9 14 0.00 0.00
11:53 pm 23:53 Clear 32 0 28 -2.2 85 85 SSW 7 11 29.83 1010 8 13 0.00 0.00

Powered by AerisWeather